TimeMDT,TemperatureF,Dew PointF,Humidity,Sea Level PressureIn,VisibilityMPH,Wind Direction,Wind SpeedMPH,Gust SpeedMPH,PrecipitationIn,Events,Conditions,WindDirDegrees,DateUTC
12:05 AM,30.2,28.4,93,29.86,1.0,SE,6.9,-,0.01,,Mist,140,2013-10-30 06:05:00
12:14 AM,30.2,28.4,93,29.85,0.5,SE,6.9,-,0.01,Fog,Light Freezing Fog,140,2013-10-30 06:14:00
12:28 AM,30.2,28.4,93,29.85,1.2,SSE,6.9,-,0.01,,Overcast,150,2013-10-30 06:28:00
12:35 AM,30.2,28.4,93,29.84,1.0,SSE,8.1,-,0.01,,Overcast,150,2013-10-30 06:35:00
12:45 AM,30.2,28.4,93,29.83,0.8,SSE,6.9,-,0.01,,Overcast,150,2013-10-30 06:45:00
12:50 AM,30.2,28.4,93,29.83,1.2,SSE,9.2,-,0.01,,Overcast,160,2013-10-30 06:50:00
12:53 AM,30.0,28.0,92,29.91,2.0,SSE,8.1,-,0.01,,Overcast,160,2013-10-30 06:53:00
1:05 AM,30.2,28.4,93,29.83,6.0,SSE,9.2,-,N/A,,Overcast,150,2013-10-30 07:05:00
1:32 AM,30.2,28.4,93,29.82,10.0,SSE,11.5,-,N/A,,Overcast,150,2013-10-30 07:32:00
1:53 AM,30.0,28.0,92,29.88,10.0,South,5.8,-,N/A,,Overcast,170,2013-10-30 07:53:00
2:12 AM,30.2,28.4,93,29.81,10.0,Variable,4.6,-,N/A,,Overcast,0,2013-10-30 08:12:00
2:50 AM,28.4,26.6,93,29.80,10.0,NW,6.9,-,N/A,,Overcast,310,2013-10-30 08:50:00
2:53 AM,28.0,26.1,92,29.88,10.0,WNW,8.1,-,N/A,,Overcast,300,2013-10-30 08:53:00
3:01 AM,28.4,26.6,93,29.81,1.5,WNW,9.2,-,N/A,,Overcast,300,2013-10-30 09:01:00
3:04 AM,28.4,26.6,93,29.81,0.8,NW,8.1,-,N/A,,Overcast,310,2013-10-30 09:04:00
3:23 AM,26.6,26.6,100,29.80,1.2,NW,8.1,-,N/A,,Overcast,320,2013-10-30 09:23:00
3:27 AM,28.4,26.6,93,29.80,3.0,NNW,8.1,-,N/A,,Overcast,330,2013-10-30 09:27:00
3:39 AM,28.4,26.6,93,29.81,1.8,North,4.6,-,N/A,,Overcast,350,2013-10-30 09:39:00
3:45 AM,28.4,26.6,93,29.81,0.8,Calm,Calm,-,N/A,,Overcast,0,2013-10-30 09:45:00
3:53 AM,28.0,28.0,100,29.88,0.5,Calm,Calm,-,N/A,Fog,Light Freezing Fog,0,2013-10-30 09:53:00
4:14 AM,28.4,28.4,100,29.81,1.2,Calm,Calm,-,N/A,,Overcast,0,2013-10-30 10:14:00
4:20 AM,28.4,26.6,93,29.81,3.0,Calm,Calm,-,N/A,,Overcast,0,2013-10-30 10:20:00
4:27 AM,28.4,26.6,93,29.81,1.5,Calm,Calm,-,N/A,,Overcast,0,2013-10-30 10:27:00
4:30 AM,28.4,26.6,93,29.81,0.8,Calm,Calm,-,N/A,,Mist,0,2013-10-30 10:30:00
4:53 AM,28.9,28.0,96,29.87,0.5,Calm,Calm,-,N/A,Fog,Light Freezing Fog,0,2013-10-30 10:53:00
5:53 AM,27.0,25.0,92,29.86,0.2,West,5.8,-,N/A,Fog,Light Freezing Fog,270,2013-10-30 11:53:00
6:53 AM,25.0,24.1,96,29.87,0.2,Calm,Calm,-,N/A,Fog,Light Freezing Fog,0,2013-10-30 12:53:00
7:53 AM,26.1,24.1,92,29.88,0.2,SSW,11.5,-,N/A,Fog,Light Freezing Fog,200,2013-10-30 13:53:00
8:08 AM,24.8,23.0,93,29.80,3.0,WSW,8.1,-,N/A,,Mostly Cloudy,250,2013-10-30 14:08:00
8:18 AM,26.6,23.0,86,29.80,10.0,WSW,6.9,-,N/A,,Scattered Clouds,250,2013-10-30 14:18:00
8:53 AM,28.9,25.0,85,29.89,10.0,West,4.6,-,N/A,,Clear,260,2013-10-30 14:53:00
9:53 AM,27.0,24.1,89,29.90,10.0,SSE,5.8,-,N/A,,Clear,160,2013-10-30 15:53:00
10:53 AM,30.9,28.9,92,29.88,10.0,South,5.8,-,N/A,,Clear,170,2013-10-30 16:53:00
11:53 AM,36.0,33.1,89,29.86,10.0,SSE,5.8,-,N/A,,Clear,150,2013-10-30 17:53:00
12:53 PM,42.1,32.0,67,29.83,10.0,SSE,8.1,-,N/A,,Clear,150,2013-10-30 18:53:00
1:53 PM,46.0,30.9,56,29.79,10.0,SSW,8.1,-,N/A,,Clear,200,2013-10-30 19:53:00
2:53 PM,46.9,30.0,52,29.78,10.0,Variable,3.5,-,N/A,,Partly Cloudy,0,2013-10-30 20:53:00
3:53 PM,48.0,28.9,48,29.78,10.0,North,8.1,-,N/A,,Clear,360,2013-10-30 21:53:00
4:53 PM,45.0,28.9,53,29.80,10.0,North,9.2,-,N/A,,Clear,350,2013-10-30 22:53:00
5:53 PM,39.9,30.0,68,29.82,10.0,NNW,8.1,-,N/A,,Partly Cloudy,340,2013-10-30 23:53:00
6:53 PM,39.0,30.0,70,29.85,10.0,NNW,6.9,-,N/A,,Mostly Cloudy,330,2013-10-31 00:53:00
7:53 PM,34.0,28.0,79,29.88,10.0,WSW,4.6,-,N/A,,Clear,240,2013-10-31 01:53:00
8:53 PM,36.0,28.9,76,29.86,10.0,WSW,3.5,-,N/A,,Overcast,250,2013-10-31 02:53:00
9:53 PM,37.0,28.9,73,29.86,10.0,WSW,5.8,-,N/A,,Clear,250,2013-10-31 03:53:00
10:53 PM,35.1,28.0,76,29.85,10.0,SW,4.6,-,N/A,,Clear,230,2013-10-31 04:53:00
11:53 PM,33.1,26.1,75,29.83,10.0,Calm,Calm,-,N/A,,Clear,0,2013-10-31 05:53:00